Location: Newark
(43.4306°N, 0.3089°E)
Time: 07:37:42
(UTC+00:00)

Vanguard 3 - Pass Details

Date: 27 August 2019
Orbit: 508 x 3262 km, 33.3° (Epoch: 17 October)

Event Time Altitude Azimuth Distance (km) Brightness Sun altitude
Rises 14:36:01 0° 226° (SW) 6,293 12.5 42.5°
Reaches altitude 10° 14:41:28 10° 217° (SW) 4,816 12.1 41.7°
Maximum altitude 14:51:26 29° 166° (SSE) 2,597 10.2 40.1°
Drops below altitude 10° 14:57:51 10° 109° (ESE) 3,027 9.8 39.1°
Sets 15:00:25 0° 97° (E) 3,681 10.1 38.7°
